{"data":{"norad_id":54219,"intl_designator":"2022-144A","name":"LDPE-2","alt_names":[],"object_type":"PAYLOAD","status":"ACTIVE","operator":null,"country":"US","launch_date":"2022-11-01","launch_site_code":"AFETR","launch_vehicle":null,"mission":null,"orbit_class":"UNKNOWN","rcs_meters":null,"size_class":null,"mass_kg":null,"dimensions":null,"purposes":["comms"],"wikipedia_slug":null,"has_3d_model":false,"image_url":null,"decayed_at":null,"tle_current":{"epoch":"2026-09-20T00:01:40.719072Z","epoch_age_seconds":61475,"freshness":"FRESH","line1":"1 54219U 22144A   26263.00116573  .00000035  00000+0  00000+0 0  9992","line2":"2 54219   5.8241  62.7357 0000338 321.8241  19.8765  0.98888373 12786","mean_motion":0.98888373,"eccentricity":3.38e-5,"inclination_deg":5.8241,"raan_deg":62.7357,"arg_perigee_deg":321.8241,"mean_anomaly_deg":19.8765,"bstar":0,"rev_number":1278,"period_min":1456.1873719977,"perigee_km":36177.491363111,"apogee_km":36180.368220826,"semimajor_km":42557.066791968,"source":"CELESTRAK","updated_at":"2026-09-20T09:00:35.307545Z"}}}